Home   Weather   Paramaribo   Past weeks

Flag for Suriname Past Weather in Paramaribo, Suriname — Yesterday and Last 2 Weeks

73 °F

Passing clouds.

Feels Like: 68 °F
Forecast: 78 / 92 °F
Wind: No wind

Location: Cayenne / Rochambeau

Current Time: Oct 25, 2016 at 3:50:25 AM

Latest Report: Oct 25, 2016 at 3:00 AM

Visibility: N/A

Pressure: 29.80 "Hg

Humidity: 100%

Dew Point: 73 °F

Location of ParamariboLocation

Past Weather in Paramaribo — Graph


Paramaribo Temperature Yesterday

Maximum temperature yesterday: 90 °F (at 12:30 PM)
Minimum temperature yesterday: 75 °F (at 1:30 AM)
Average temperature yesterday: 81 °F

High & Low Weather Summary for the Past Weeks

High93 °F (Oct 10, 1:00 PM)100% (Oct 10, 2:00 AM)29.98 "Hg (Oct 10, 2:00 AM)
Low72 °F (Oct 13, 6:00 AM)44% (Oct 15, 1:00 PM)29.71 "Hg (Oct 21, 3:30 PM)
Average81 °F81%29.85 "Hg
* Reported Oct 10 2:00 AM — Oct 25 2:30 AM, Paramaribo, Weather by CustomWeather, © 2016

Note: Actual official high and low records may vary slightly from our data, if they occured in-between our weather recording intervals... More about our weather records


Paramaribo Weather History for the Previous 24 Hours

Scroll right to see more
Time TempWeatherWind HumidityBarometerVisibility
2:30 AM
Tue, Oct 25
75 °FPassing clouds.No wind94%29.80 "HgN/A
2:00 AM75 °FPassing clouds.No wind94%29.83 "HgN/A
1:30 AM75 °FClear.2 mph94%29.83 "Hg10 mi
1:00 AM75 °FClear.No wind94%29.83 "Hg10 mi
12:30 AM77 °FClear.No wind94%29.86 "Hg10 mi
12:00 AM77 °FClear.No wind94%29.86 "Hg10 mi
11:30 PM
Mon, Oct 24
79 °FPassing clouds.2 mph89%29.86 "HgN/A
11:00 PM79 °FPassing clouds.No wind89%29.86 "HgN/A
10:30 PM79 °FPassing clouds.2 mph89%29.86 "HgN/A
10:00 PM79 °FPassing clouds.3 mph94%29.86 "HgN/A
9:30 PM79 °FClear.5 mph94%29.86 "Hg10 mi
9:00 PM81 °FClear.5 mph89%29.83 "Hg10 mi
8:30 PM81 °FClear.5 mph89%29.83 "Hg10 mi
8:00 PM81 °FClear.6 mph89%29.83 "Hg10 mi
7:30 PM81 °FClear.7 mph89%29.80 "Hg10 mi
7:00 PM81 °FClear.7 mph89%29.80 "Hg10 mi
6:30 PM82 °FClear.9 mph79%29.80 "Hg10 mi
6:00 PM84 °FSunny.12 mph74%29.80 "Hg10 mi
5:30 PM86 °FSunny.12 mph70%29.80 "Hg10 mi
5:00 PM86 °FSunny.12 mph70%29.80 "Hg10 mi
4:30 PM86 °FSunny.10 mph70%29.80 "Hg10 mi
4:00 PM86 °FSunny.12 mph70%29.80 "Hg10 mi
3:30 PM88 °FPassing clouds.13 mph66%29.80 "HgN/A
3:00 PM90 °FPassing clouds.15 mph67%29.80 "HgN/A
2:30 PM90 °FPassing clouds.14 mph67%29.83 "HgN/A
2:00 PM90 °FScattered clouds.14 mph63%29.83 "HgN/A
1:30 PM90 °FBroken clouds.9 mph63%29.83 "HgN/A
1:00 PM90 °FBroken clouds.13 mph63%29.86 "HgN/A
12:30 PM90 °FBroken clouds.9 mph59%29.86 "HgN/A
12:00 PM88 °FPartly sunny.9 mph66%29.89 "HgN/A
11:30 AM88 °FBroken clouds.9 mph66%29.89 "HgN/A
11:00 AM88 °FPartly sunny.7 mph66%29.89 "HgN/A
10:00 AM84 °FPartly sunny.8 mph79%29.92 "HgN/A
9:30 AM84 °FPartly sunny.5 mph79%29.92 "HgN/A
9:00 AM81 °FBroken clouds.No wind89%29.89 "HgN/A
8:30 AM79 °FCloudy.2 mph94%29.89 "HgN/A
8:00 AM77 °FLow clouds.2 mph94%29.89 "HgN/A
7:30 AM77 °FBroken clouds.No wind94%29.89 "HgN/A
7:00 AM77 °FBroken clouds.No wind94%29.86 "HgN/A
6:30 AM75 °FBroken clouds.No wind100%29.86 "HgN/A
6:00 AM75 °FPassing clouds.1 mph100%29.83 "HgN/A
5:30 AM75 °FLow clouds.No wind100%29.83 "HgN/A
5:00 AM75 °FPassing clouds.No wind100%29.83 "HgN/A
4:30 AM75 °FPartly cloudy.No wind100%29.83 "HgN/A
4:00 AM75 °FPassing clouds.1 mph100%29.83 "HgN/A
3:30 AM75 °FPassing clouds.No wind100%29.83 "HgN/A
3:00 AM75 °FPassing clouds.2 mph100%29.83 "HgN/A
Weather by CustomWeather, © 2016

See weather overviewHow to use our weather pages